Regional Weather Roundup
Issued by NWS

Home | Current Version | Previous Version | Graphics & Text | Print | Product List | Glossary Off
Versions: 1 2 3 4 5 6 7 8 9 10 11 12 13 14 15 16 17 18 19 20 21 22 23 24 25 26 27 28 29 30 31 32 33 34 35 36 37 38 39 40 41 42 43 44 45 46 47 48 49 50

000
ASUS43 KTOP 030759
RWRKS

WEATHER ROUNDUP FOR KANSAS
NATIONAL WEATHER SERVICE GOODLAND KS
300 AM CDT SUN MAY 03 2015

NOTE:  "FAIR" INDICATES FEW OR NO CLOUDS BELOW 12,000 FEET WITH NO
SIGNIFICANT WEATHER AND/OR OBSTRUCTIONS TO VISIBILITY.

KSZ001>006-013>018-027>032-041>047-030900-
NORTHWEST KANSAS

CITY           SKY/WX    TMP DP  RH WIND       PRES   REMARKS
GOODLAND       CLOUDY    57  45  64 W13       29.82F
HAYS           CLOUDY    64  48  55 SW9       29.78F
HILL CITY      CLOUDY    68  47  46 W3        29.76F
RUSSELL        CLOUDY    67  53  61 S18       29.76F
$$

KSZ061>065-074>080-084>089-030900-
SOUTHWEST KANSAS

CITY           SKY/WX    TMP DP  RH WIND       PRES   REMARKS
DODGE CITY     CLOUDY    66  46  48 S10       29.82F
ELKHART          N/A     56  42  59 SW6         N/A
GARDEN CITY    CLOUDY    60  43  53 S10       29.80F
GREAT BEND     CLOUDY    66  52  59 S14       29.79F
LIBERAL        CLOUDY    63  45  51 SW8       29.87F
$$

KSZ066>073-081>083-090>101-030900-
SOUTHEAST KANSAS

CITY           SKY/WX    TMP DP  RH WIND       PRES   REMARKS
CHANUTE        PTCLDY    64  53  67 S13       29.91S
COFFEYVILLE    PTCLDY    60  53  77 S7        29.92S
HUTCHINSON     CLOUDY    66  55  67 S14       29.83F
MEDICINE LODGE   N/A     63  56  78 S6        29.86S
NEWTON         CLOUDY    66  52  59 S21G28    29.86F THUNDER
PARSONS        PTCLDY    62  54  74 S5        29.93S
WICHITA INTL   CLOUDY    65  55  70 S14       29.85F
WICHITA JABRA  MOCLDY    68  55  63 S18G30    29.85F
WINFIELD       CLOUDY    67  55  65 S15G24    29.88F
$$

KSZ007>012-019>026-033>040-048>060-102>105-030900-
NORTHEAST KANSAS

CITY           SKY/WX    TMP DP  RH WIND       PRES   REMARKS
CONCORDIA      PTCLDY    66  54  65 S18G26    29.75F
EMPORIA        CLEAR     61  53  75 S14       29.85F
LAWRENCE       MOCLDY    63  51  65 S8        29.85F
MANHATTAN      PTCLDY    68  55  63 S10       29.81S THUNDER
OLATHE IND     CLOUDY    62  53  72 S12       29.88F
OLATHE EXE     CLOUDY    63  53  70 S8        29.88F
SALINA         CLOUDY    70  54  56 S21       29.78F
TOPEKA BILLARD CLOUDY    67  53  61 S5        29.84F
TOPEKA FORBES  MOCLDY    67  53  61 S16       29.82F
$$



USA.gov is the U.S. government's official web portal to all federal, state and local government web resources and services.